Wind_Speed
10 9 9 9 8 8 8 8 8 8 8 8 8 8 8 8 8 9 9 9 10 11 11 11 12 12 12 13 13 14 15 16 17 17 18 19 20 20 21 22 22 23 24 24 25 26 26 27 28 29 30 30 30 31 30 30 30 30 30 29 29 29 28 28 28 28 28 28 28
10 9 9 9 8 8 8 8 8 8 8 8 8 8 8 8 8 8 9 9 10 10 11 11 12 12 13 13 14 15 16 17 18 18 19 20 20 21 22 22 23 23 24 25 26 27 27 28 29 30 31 31 31 31 31 31 30 30 30 30 29 29 28 28 27 27 27 27 27
10 9 9 9 9 8 8 8 8 8 8 7 7 7 7 7 7 8 9 9 10 11 11 12 12 13 14 14 15 16 17 18 19 19 20 20 21 21 22 23 23 24 25 26 27 27 28 29 30 31 31 31 32 31 31 31 30 29 29 29 29 28 27 27 27 27 26 26 26
9 9 9 8 8 8 8 8 8 7 7 6 6 6 6 7 8 8 9 10 11 11 12 13 14 14 15 16 17 17 18 18 19 20 20 21 21 21 22 23 24 24 25 26 27 28 28 29 30 31 31 32 32 31 31 30 30 29 29 29 28 27 27 27 27 27 26 26 26
8 8 8 8 8 8 8 8 7 6 6 6 6 6 7 8 9 10 11 12 12 13 14 14 15 16 16 17 18 18 18 19 19 20 20 21 21 21 22 23 24 25 26 26 27 28 28 29 30 31 31 31 31 30 30 29 29 29 29 28 28 27 27 27 27 27 27 27 27
8 8 8 8 8 8 7 6 6 5 6 6 7 8 8 9 10 11 12 13 14 14 15 16 17 17 17 18 18 18 19 19 19 20 20 21 21 22 23 23 24 25 26 27 27 28 28 29 30 31 31 30 29 29 29 28 28 28 29 29 28 28 27 27 27 27 27 27 28
7 7 7 7 7 7 6 5 5 6 6 7 8 9 10 10 11 12 13 14 15 16 16 17 17 18 18 18 18 18 19 19 19 20 20 21 22 23 23 24 25 25 26 27 27 28 28 29 30 30 30 28 28 28 28 28 28 29 29 29 29 28 28 27 28 28 28 28 29
6 7 7 6 6 5 5 5 6 6 7 8 9 10 11 12 13 13 14 15 16 17 17 17 17 17 17 18 18 18 19 19 20 20 21 22 23 23 24 25 25 26 26 26 27 28 28 29 29 29 28 28 28 28 28 28 29 29 30 30 30 29 28 28 28 28 28 29 30
6 6 6 6 5 5 5 6 6 7 8 9 10 11 12 13 14 15 16 16 17 17 17 17 17 17 17 17 18 18 19 20 21 21 22 22 23 24 24 25 25 26 26 26 27 28 28 29 28 28 27 27 27 28 29 29 30 30 30 30 30 29 29 29 29 29 29 30 30
6 6 6 5 5 5 6 7 7 8 9 10 11 12 13 13 14 15 16 16 16 16 16 16 16 16 17 17 18 19 19 20 21 22 22 23 23 24 25 25 26 26 27 27 27 28 28 28 28 27 27 28 28 29 30 30 30 30 30 30 29 30 30 30 30 30 30 30 30
6 5 5 5 6 6 7 8 8 9 10 11 12 12 13 14 15 15 16 16 16 15 15 15 15 16 17 17 18 19 20 20 21 22 22 23 23 24 24 25 26 26 27 27 28 28 28 28 28 28 29 29 30 30 30 31 31 31 31 30 30 30 30 31 30 30 30 30 30
5 5 5 6 6 7 8 8 9 10 11 11 12 13 13 14 14 15 15 15 14 14 14 15 15 16 17 18 18 19 19 20 21 22 22 23 24 24 25 26 26 27 27 28 28 28 28 28 29 29 30 31 31 30 30 31 31 31 31 31 30 30 30 31 31 31 30 30 31
5 5 5 6 7 8 8 9 10 10 11 12 12 13 13 13 13 13 14 14 14 14 15 15 15 16 17 18 19 19 20 20 21 22 23 24 24 25 26 26 27 27 28 28 28 28 29 29 30 30 31 31 31 31 31 31 31 30 30 30 30 30 30 31 32 32 32 32 32
4 5 6 7 7 8 9 10 10 10 11 12 12 12 12 13 13 13 13 14 14 15 15 16 16 16 17 18 19 20 20 21 22 23 24 25 25 26 26 27 27 28 28 29 29 29 29 30 30 31 31 31 31 31 31 31 30 30 30 30 30 31 31 32 33 33 33 33 32
5 5 6 7 8 9 9 10 10 11 11 12 12 12 12 12 12 13 13 14 14 15 16 16 17 17 18 18 19 20 21 22 23 24 25 26 26 27 27 28 28 28 29 29 29 29 30 30 30 31 31 31 32 32 32 32 31 31 31 31 32 32 33 33 33 33 33 33 32
5 6 7 8 8 9 10 10 10 11 11 12 12 12 12 13 13 13 13 14 15 15 16 17 17 18 19 19 20 21 22 23 24 25 25 26 27 27 28 28 29 29 29 30 30 30 30 30 31 31 31 32 32 32 32 32 32 32 33 33 33 33 33 34 33 33 32 32 32
6 7 8 8 9 10 10 10 11 11 11 12 12 12 12 13 13 13 14 15 15 16 17 17 18 19 20 21 21 22 23 24 24 25 26 27 27 28 28 29 29 29 30 30 30 31 31 31 31 31 32 32 32 33 33 33 33 33 33 33 33 33 33 33 33 33 32 32 31
7 8 8 9 10 10 10 10 11 11 11 12 12 12 13 13 13 14 14 15 16 17 18 19 19 20 21 22 22 22 23 24 25 26 26 27 28 28 29 29 29 30 30 30 31 31 32 32 32 32 32 32 33 33 33 33 33 32 32 33 33 33 33 33 33 33 32 32 32
8 9 9 10 10 10 10 10 11 11 12 12 12 13 13 13 14 15 15 16 16 17 18 19 20 21 21 22 23 23 24 24 25 26 27 28 28 29 29 30 30 30 30 30 31 31 32 32 32 33 33 33 33 32 32 32 32 32 32 33 33 33 33 33 33 33 32 32 32
9 10 10 10 10 10 10 11 11 12 12 12 13 13 13 14 14 15 16 17 17 18 19 20 21 22 22 23 23 24 24 25 26 27 28 28 29 29 29 30 30 30 30 31 31 32 32 32 33 33 33 32 32 32 32 32 32 32 33 33 33 33 33 33 33 32 32 32 32
10 10 10 9 10 10 11 11 12 12 12 13 13 13 14 14 15 16 17 17 18 19 19 20 21 22 23 23 24 25 25 26 26 27 28 29 29 29 29 30 30 30 31 31 31 32 32 32 32 32 32 32 31 31 32 32 32 33 33 33 33 32 32 32 32 32 32 31 31
10 10 10 10 10 11 11 11 12 12 13 13 13 14 14 15 16 16 17 18 19 19 20 21 22 22 23 24 24 25 26 27 27 28 28 29 29 29 30 30 30 31 31 31 31 32 32 32 32 31 31 31 31 31 32 32 32 32 32 32 32 32 32 32 32 32 31 31 30
10 10 10 10 10 11 12 12 12 13 13 13 14 14 15 16 16 17 18 18 19 20 21 21 22 23 23 24 24 25 26 27 28 28 29 29 29 30 30 30 30 30 31 31 31 31 31 31 30 30 30 30 31 31 32 32 31 31 31 31 31 32 32 32 31 31 30 29 28
10 10 10 11 11 11 12 12 13 13 14 14 14 15 15 16 17 17 18 19 20 20 21 22 22 23 24 24 25 26 26 27 28 29 29 29 29 30 30 30 30 30 30 30 30 30 29 28 28 29 30 30 31 31 31 31 30 30 30 30 31 31 31 31 30 29 29 28 27
11 11 11 11 11 12 12 13 13 13 14 14 15 15 16 17 17 18 19 20 20 21 22 22 23 24 24 25 26 26 27 27 28 29 29 30 30 30 30 29 29 29 29 30 30 29 27 26 27 28 29 30 31 31 30 29 29 29 29 29 30 30 30 30 29 28 28 27 27
11 11 11 12 12 12 13 13 13 14 14 15 15 16 16 17 18 19 20 21 21 22 22 23 24 24 25 25 26 27 27 28 28 28 29 29 30 30 29 29 29 29 30 30 29 28 27 27 27 28 29 30 31 31 30 29 28 28 28 29 28 28 28 28 28 28 27 27 26
12 12 12 12 12 13 13 13 13 14 15 15 16 16 17 18 19 20 21 21 22 23 23 24 24 25 25 26 26 27 28 28 28 28 28 29 29 29 29 29 29 29 30 30 28 27 27 28 28 28 28 29 30 30 29 28 28 28 28 28 28 27 27 27 28 27 27 27 27
12 12 12 12 13 13 13 13 14 14 15 15 16 17 18 19 20 21 22 22 23 24 24 25 25 26 26 26 27 27 28 28 28 28 28 28 28 28 29 29 29 30 30 29 28 27 28 28 28 28 28 28 28 28 28 28 28 28 28 28 27 27 27 27 27 27 27 28 28
12 13 13 13 13 13 13 14 14 14 15 16 16 18 19 20 21 22 23 24 24 25 25 25 26 26 26 26 27 27 28 28 28 28 28 28 28 28 29 29 29 30 30 29 28 28 28 28 28 28 28 28 28 28 28 28 28 28 28 28 27 27 27 27 27 27 28 28 28
13 13 13 13 13 13 14 14 14 15 15 16 17 18 20 21 22 23 24 24 25 25 25 26 26 26 26 26 27 27 27 28 28 28 28 28 28 28 29 29 30 30 30 29 28 27 28 28 28 29 29 29 29 28 28 28 28 28 28 28 28 28 27 27 28 27 27 27 27
13 13 13 13 14 14 14 14 15 15 16 17 18 20 21 22 23 24 24 25 25 25 25 25 25 26 26 26 26 27 27 28 28 28 28 28 28 29 29 30 31 31 30 28 27 27 28 29 29 29 29 29 29 28 28 28 28 28 28 27 28 28 27 27 26 26 25 25 26
13 13 13 13 14 14 14 15 15 16 17 18 20 21 22 23 24 24 25 25 25 25 25 25 25 25 26 26 26 27 27 28 28 28 28 28 28 29 30 30 31 30 29 28 28 28 29 29 30 30 30 30 29 29 29 28 28 28 28 27 27 26 26 25 25 25 25 26 27
13 13 13 14 14 14 15 15 16 17 18 20 21 22 23 24 24 25 25 24 24 24 24 24 24 25 25 26 26 27 27 28 28 28 28 28 29 29 30 30 30 29 29 28 28 29 29 30 30 30 30 30 29 29 29 28 28 27 27 26 26 25 24 24 25 26 27 29 30
12 13 13 14 14 15 16 16 17 19 20 21 22 23 23 24 24 25 25 24 24 23 23 23 24 24 25 25 26 27 28 28 28 29 29 29 29 29 30 30 30 30 29 29 29 29 29 30 30 30 30 29 29 28 28 28 27 27 26 25 24 24 24 25 26 28 29 31 32
13 13 14 14 15 16 17 18 19 20 21 22 23 23 24 24 24 24 24 24 24 23 23 24 24 24 25 26 26 27 28 28 29 29 29 29 29 29 30 31 31 31 30 29 29 29 29 29 29 29 29 29 28 27 27 27 26 25 24 24 24 24 25 27 28 29 30 31 32
13 14 14 15 16 17 17 18 20 21 22 22 23 24 24 24 24 24 24 24 23 23 23 24 24 25 26 27 27 27 27 28 29 29 29 29 29 29 30 31 32 32 31 29 29 29 29 29 29 29 28 28 27 26 26 25 25 24 24 24 25 26 27 28 28 29 30 31 32
13 14 15 15 16 17 18 19 20 21 22 23 23 24 24 24 24 24 24 23 23 23 24 24 25 25 26 27 28 28 28 28 28 29 29 29 29 29 30 31 31 31 31 30 29 28 28 28 28 27 27 26 26 25 25 24 24 24 24 25 26 27 27 27 27 28 30 31 32
13 14 15 16 17 18 19 20 21 22 23 23 24 24 24 24 24 24 23 23 22 23 24 25 25 26 27 27 28 28 29 28 28 28 29 29 29 29 29 30 30 31 31 30 29 28 28 27 27 26 25 25 25 25 24 23 23 24 25 26 26 27 27 27 27 29 30 32 32
14 15 16 17 18 19 20 21 22 23 23 24 24 24 24 24 24 23 23 22 22 23 24 25 26 27 27 28 28 28 29 29 29 29 28 29 28 28 28 28 29 30 30 30 29 28 27 26 25 25 24 24 24 24 23 24 24 25 25 26 26 27 27 27 28 29 30 32 32
15 16 17 18 19 20 21 22 23 23 24 24 24 24 24 24 24 23 23 23 23 23 24 25 26 27 28 28 28 28 29 30 30 29 29 28 28 27 27 27 29 30 30 30 28 27 25 24 24 24 24 24 24 24 24 24 25 25 26 26 26 27 27 28 29 29 30 30 31
16 17 18 19 20 21 22 23 24 24 24 24 24 24 24 24 23 23 24 24 24 24 25 26 27 27 28 28 28 28 29 30 30 30 29 29 28 27 27 27 29 29 29 28 27 25 24 23 23 24 24 24 24 24 24 24 25 25 25 26 27 27 27 28 28 28 29 29 30
Wind_Direction
227 236 244 251 255 258 262 268 277 286 294 299 303 307 310 314 317 321 323 325 324 324 324 324 323 322 321 321 321 321 320 319 319 318 317 316 316 315 315 314 313 312 312 311 311 310 310 309 309 308 308 307 307 306 306 305 305 305 304 303 302 301 300 299 298 297 297 296 295
228 238 246 250 253 256 261 270 279 286 292 295 299 303 307 311 315 319 322 325 326 325 325 324 322 321 320 319 319 318 318 317 317 316 315 315 314 313 313 312 311 310 309 308 308 308 307 307 308 307 307 307 306 306 305 305 305 305 304 303 303 302 301 299 298 298 298 298 297
233 242 248 249 251 254 262 270 278 284 287 290 293 297 303 310 315 321 324 326 327 327 326 324 322 321 319 318 318 317 317 316 316 315 314 313 313 312 311 310 309 307 307 306 306 306 306 307 307 307 307 307 307 307 306 306 306 305 304 304 303 303 301 300 299 299 298 298 297
240 247 249 249 251 257 265 273 277 280 282 286 291 298 306 315 320 324 326 326 327 326 325 323 321 320 319 318 317 317 316 316 315 314 313 312 311 310 309 308 306 306 305 305 305 306 306 307 307 307 308 308 308 307 307 307 307 306 305 304 303 302 301 300 299 299 299 298 297
245 249 250 252 257 263 268 271 274 278 283 289 298 307 315 321 324 325 325 325 325 324 323 321 320 320 320 319 318 317 317 316 315 314 312 311 310 309 308 307 306 305 305 306 306 307 307 308 308 308 309 309 308 308 307 308 308 307 305 304 304 303 302 301 300 300 299 299 298
244 248 251 255 259 263 265 267 272 282 293 300 308 315 320 323 324 323 322 322 321 321 320 320 320 320 319 319 318 318 317 317 316 314 312 311 310 309 308 307 307 307 307 308 308 309 310 310 310 310 310 310 309 308 308 309 308 307 306 305 304 303 303 302 302 301 301 300 300
242 245 249 252 255 257 261 269 280 292 300 307 312 316 319 320 320 319 318 318 318 318 318 318 319 319 318 318 317 317 317 317 316 315 313 312 311 310 309 309 309 309 309 310 311 312 312 313 313 312 312 311 310 309 309 309 308 307 306 305 305 304 304 303 303 303 302 301 301
237 241 243 245 248 253 265 279 290 298 304 308 310 313 314 314 314 314 314 314 314 315 315 316 317 316 316 316 316 317 317 316 316 315 314 313 312 311 311 311 311 312 312 313 314 314 315 315 314 313 312 311 310 309 309 310 309 307 306 305 305 305 305 304 304 304 303 302 301
230 232 234 238 246 258 272 283 291 296 300 303 305 307 309 310 310 311 311 310 310 311 312 313 314 314 314 315 315 316 316 316 315 315 314 314 313 313 313 314 314 315 315 316 316 316 316 315 314 312 311 311 310 309 309 310 309 308 307 306 306 306 305 305 305 304 303 302 301
224 226 231 239 250 263 274 282 287 292 295 298 301 303 305 306 306 306 306 306 306 307 309 311 312 313 314 315 316 316 317 316 316 315 315 315 315 315 316 316 317 317 317 317 318 317 317 315 313 312 311 311 310 310 310 310 309 308 308 307 306 306 306 305 305 304 303 302 301
222 228 236 247 257 267 275 281 285 289 292 295 297 299 301 302 302 302 302 302 304 306 309 312 314 314 315 316 317 317 317 317 317 317 317 317 317 318 318 318 318 318 318 318 318 317 316 314 313 312 312 312 312 311 311 311 311 309 308 307 306 306 305 305 305 305 303 302 301
225 235 247 257 267 274 279 282 286 289 291 293 295 296 297 299 299 300 301 303 305 308 312 315 316 316 317 318 318 319 320 320 320 320 320 319 320 320 319 319 319 318 318 318 318 317 316 314 314 313 313 313 313 313 312 312 311 310 308 307 307 306 304 304 305 304 303 302 301
237 250 261 269 275 279 282 284 287 289 290 292 293 295 296 298 299 301 303 305 308 312 315 317 318 318 319 320 321 322 323 323 323 322 322 321 321 321 320 320 319 319 318 318 317 317 316 315 314 314 314 314 314 313 313 313 311 309 308 307 306 305 304 304 304 305 304 303 301
255 266 273 278 280 282 284 286 287 288 290 291 293 295 297 300 302 304 306 308 311 314 317 318 320 321 322 323 324 325 325 325 325 324 323 322 322 321 320 320 319 319 318 317 317 317 316 315 315 315 314 314 314 314 314 313 311 309 308 306 305 305 304 304 305 305 305 303 302
269 275 279 281 282 283 284 285 287 288 290 292 294 297 300 303 305 307 309 310 313 316 318 319 321 323 325 326 326 326 326 326 325 324 323 322 322 321 320 319 319 318 318 317 317 316 316 315 315 315 314 314 314 314 313 312 311 310 308 307 306 306 305 306 306 306 304 303 301
275 280 281 281 282 282 284 285 287 289 292 295 298 301 304 307 309 311 312 313 316 317 319 320 322 324 326 327 327 327 326 325 324 323 322 322 321 321 320 319 318 318 317 317 316 316 316 315 315 315 314 313 313 313 313 312 312 311 310 309 308 307 307 307 306 305 303 302 300
278 281 281 281 281 282 283 285 288 292 296 300 303 306 308 311 313 314 315 316 317 318 320 321 323 324 325 326 327 326 325 324 323 322 321 321 320 320 319 318 318 318 317 316 315 315 315 315 315 314 314 313 312 312 312 312 312 311 310 309 309 308 307 306 306 304 302 301 299
280 282 282 281 281 282 285 288 292 296 300 304 307 310 312 314 315 316 317 318 319 319 320 321 323 324 324 324 325 324 323 322 321 321 320 320 320 319 318 318 318 317 316 315 314 314 314 314 314 314 313 312 312 312 312 311 311 310 309 309 308 307 307 306 305 304 302 300 299
281 283 282 281 281 283 287 292 296 300 304 306 309 312 314 316 316 317 318 319 320 319 319 320 321 322 322 322 322 322 321 320 320 319 319 319 319 319 318 317 317 316 315 314 313 313 313 313 313 313 312 312 312 311 311 311 310 309 309 308 307 306 306 306 305 305 303 302 301
282 284 283 282 283 287 291 296 299 302 305 308 311 313 315 316 317 317 318 319 320 319 319 319 319 320 320 320 320 319 319 319 319 318 318 319 318 318 317 317 316 315 314 313 313 312 312 312 312 312 312 311 311 311 310 310 309 308 308 307 306 306 305 305 305 305 304 303 302
283 284 283 284 287 291 295 298 300 303 306 308 311 314 316 317 317 318 318 319 319 318 317 317 318 318 318 318 318 317 317 318 317 317 317 318 317 317 317 316 315 314 313 312 312 312 312 312 312 312 311 311 310 310 309 309 308 307 307 306 306 305 305 305 304 304 303 302 302
284 285 285 287 291 294 296 299 301 303 306 309 312 314 316 317 317 318 318 317 317 317 316 316 316 316 316 316 316 316 316 317 317 317 317 317 316 316 316 315 314 313 312 312 312 312 312 312 312 311 311 310 309 309 309 308 307 307 306 306 305 304 304 304 303 303 302 302 302
284 286 288 291 293 295 296 299 301 303 306 309 312 315 316 316 317 317 317 316 316 316 316 316 316 316 316 316 315 315 315 316 316 316 316 316 315 315 315 315 313 312 311 311 312 312 312 312 311 311 310 309 309 308 308 308 307 306 305 304 304 303 303 303 302 302 302 302 302
286 288 291 292 294 295 297 299 301 304 307 310 313 315 315 316 316 316 316 316 316 316 317 317 317 317 316 316 315 315 315 316 316 316 316 315 315 315 315 314 313 312 311 311 312 312 311 310 310 310 309 308 308 308 307 307 306 305 304 303 303 302 302 302 302 302 302 303 303
288 290 292 294 294 296 297 300 303 305 309 312 314 315 315 316 317 316 316 317 317 318 318 318 318 318 317 316 316 316 316 315 315 315 315 315 315 315 314 313 312 311 311 312 312 311 310 309 308 308 308 308 308 308 307 305 304 303 303 302 302 302 302 302 302 302 302 303 303
290 292 293 295 296 297 299 301 304 307 310 312 314 315 316 317 317 318 318 318 319 320 320 320 319 319 318 317 317 316 315 315 314 314 314 314 314 314 314 313 312 312 312 313 313 311 309 309 309 308 308 308 308 308 306 305 304 304 303 303 302 302 302 302 302 302 302 302 302
293 294 295 296 296 297 299 303 306 308 311 313 315 316 317 318 319 319 319 320 320 321 321 320 320 319 318 317 316 315 315 315 314 314 314 314 314 314 313 313 313 313 313 313 312 311 309 309 309 309 309 308 308 307 306 305 305 304 304 303 302 302 301 301 301 302 302 301 301
294 296 296 296 296 298 301 304 307 309 312 315 316 317 318 319 320 320 320 320 321 321 321 321 320 319 318 317 316 315 315 315 314 314 314 314 314 313 313 313 313 313 313 313 312 311 310 310 310 309 309 309 308 307 307 306 305 305 304 303 302 302 301 301 301 301 301 300 300
296 296 296 295 296 298 302 305 308 311 314 316 317 318 319 320 320 320 320 321 321 321 321 320 320 319 317 316 315 315 315 315 315 315 315 314 314 314 314 313 313 313 313 313 312 311 311 311 310 310 309 309 309 308 307 306 305 304 303 302 302 301 301 301 300 300 300 300 299
295 295 294 294 296 299 302 306 310 313 315 317 318 319 319 319 320 320 320 320 320 320 320 320 319 317 316 316 315 315 315 315 315 315 315 315 314 314 313 313 313 313 313 313 312 312 311 311 311 310 310 310 309 308 306 305 304 303 302 301 301 301 301 301 300 300 300 300 300
293 293 293 294 296 299 303 307 311 314 315 317 318 318 319 319 319 319 320 320 320 319 319 319 317 316 316 316 316 315 315 315 315 315 315 314 314 314 313 313 313 313 314 313 313 312 312 311 311 310 310 310 309 307 306 305 304 303 302 301 301 301 301 301 301 301 302 302 303
291 291 292 295 298 301 305 309 312 314 315 316 317 318 318 318 318 319 319 319 319 319 318 318 317 316 316 316 315 315 315 315 315 315 315 314 314 313 313 313 313 313 314 313 313 312 312 312 311 311 310 310 309 307 306 305 303 302 301 300 300 301 301 302 302 303 304 304 304
289 290 293 295 299 302 306 309 312 314 315 316 316 317 317 318 318 318 318 319 318 318 317 316 316 315 315 315 315 315 315 315 314 314 314 314 314 314 313 313 313 313 313 313 313 312 312 312 311 311 310 310 309 308 306 305 303 302 301 300 300 301 302 303 304 305 305 305 303
289 291 294 296 300 303 307 310 312 314 315 315 316 317 317 317 317 317 318 318 318 317 316 315 315 314 314 314 314 314 314 314 314 314 314 314 314 314 313 312 312 312 313 313 313 312 312 312 312 311 311 310 309 308 306 305 303 302 301 301 302 303 304 305 306 306 305 304 302
291 293 295 298 301 304 308 311 313 314 315 315 316 316 316 316 316 317 317 317 317 316 315 315 315 314 314 314 314 314 314 314 314 314 314 314 314 314 313 312 312 313 313 313 313 313 313 312 312 312 312 311 310 308 306 305 304 303 303 303 304 306 306 307 307 306 305 304 302
291 294 296 299 302 305 309 311 313 314 315 315 315 315 315 315 315 316 316 317 316 316 315 314 314 314 314 314 314 314 314 314 313 313 314 314 314 313 312 312 312 313 314 314 314 314 313 313 313 312 312 311 310 308 307 306 305 305 306 306 307 307 307 307 307 306 305 305 304
292 295 298 301 304 307 310 312 313 313 314 314 314 314 314 314 315 315 316 316 316 314 314 314 314 313 314 314 314 314 313 313 313 313 313 313 313 313 312 312 313 313 314 314 314 314 314 313 313 313 313 312 310 309 308 308 307 307 307 307 307 307 308 307 307 306 306 306 306
294 297 299 302 305 308 310 311 312 313 313 313 313 313 313 314 314 314 315 315 314 313 312 312 312 313 313 314 313 313 313 313 312 312 312 312 313 313 313 312 312 313 314 314 314 314 314 314 313 313 313 312 311 311 310 310 309 308 308 308 307 307 308 307 306 306 306 306 306
296 298 301 304 306 308 310 310 311 311 311 312 312 312 312 313 312 313 313 313 312 311 311 311 311 312 313 313 313 312 312 312 312 312 312 312 313 313 313 311 311 312 313 315 315 314 314 314 313 314 313 313 313 312 312 310 309 309 308 308 307 307 307 306 306 305 305 305 305
298 300 303 305 307 308 309 309 309 309 310 310 310 311 311 311 311 311 311 312 311 310 310 310 310 311 312 313 312 312 311 312 312 312 312 312 313 313 313 311 311 312 314 315 315 315 314 314 314 314 314 314 314 313 312 311 310 309 308 307 306 306 305 304 304 304 303 303 303
299 302 304 305 306 307 307 307 308 308 309 309 309 310 310 310 310 310 310 310 310 310 310 310 310 311 312 312 312 311 311 311 312 312 313 313 313 313 313 312 312 313 315 316 316 315 314 314 314 315 315 315 315 314 313 312 310 308 306 305 305 304 302 302 302 301 300 299 299
Height
850 850 850 850 850 850 850 850 850 850 850 850 849 849 849 849 848 848 848 847 847 847 846 846 846 845 845 844 844 843 843 842 842 842 841 840 840 839 839 838 838 837 836 836 835 834 833 832 832 831 829 828 827 827 826 825 824 823 822 822 821 820 820 819 818 817 817 816 815
849 849 850 850 849 849 849 849 849 849 849 849 849 849 848 848 848 848 847 847 847 846 846 845 845 845 844 844 843 843 842 842 841 841 840 839 839 838 838 837 837 836 835 834 833 833 832 831 830 829 827 827 826 825 824 823 823 822 821 820 819 819 818 817 816 816 815 814 813
849 849 849 849 849 849 849 849 849 849 849 849 848 848 848 848 847 847 847 846 846 846 845 845 844 844 843 843 842 842 842 841 840 840 839 838 838 837 837 836 835 835 834 833 832 831 830 829 828 827 826 825 824 823 822 821 821 820 819 818 817 817 816 815 814 814 813 812 812
848 848 848 848 848 849 849 849 849 848 848 848 848 848 847 847 847 847 846 846 845 845 845 844 844 843 843 842 842 841 841 840 839 839 838 837 837 836 836 835 834 833 832 832 831 830 829 828 827 825 824 823 822 821 820 819 819 818 817 817 816 815 814 813 813 812 812 811 810
847 848 848 848 848 848 848 848 848 848 848 848 847 847 847 847 846 846 845 845 845 844 844 843 843 842 842 841 841 840 840 839 838 838 837 836 836 835 834 833 832 832 831 830 829 828 827 826 825 823 822 821 820 819 818 818 817 816 816 815 814 814 813 812 811 811 810 809 808
847 847 847 847 847 847 847 847 847 847 847 847 847 847 846 846 846 845 845 844 844 843 843 842 842 842 841 840 840 839 839 838 837 837 836 835 834 833 832 832 831 830 829 828 827 826 825 824 823 822 821 820 819 818 817 817 816 815 814 813 812 812 811 810 809 809 808 807 806
846 847 847 847 847 847 847 847 847 847 847 846 846 846 845 845 845 844 844 843 843 842 842 842 841 841 840 839 839 838 837 837 836 835 834 833 832 832 831 830 829 828 827 826 825 824 823 822 821 820 819 818 817 816 815 815 814 813 812 811 810 810 810 808 808 807 806 805 804
846 846 846 846 846 846 846 846 846 846 846 846 845 845 844 844 844 843 843 842 842 842 841 841 841 840 839 838 838 837 836 836 835 834 833 832 831 830 829 828 827 827 826 825 824 823 822 821 820 818 817 816 815 814 814 813 812 812 811 809 808 808 808 807 806 805 804 803 802
845 845 845 846 846 846 846 846 845 845 845 845 844 844 844 843 843 842 842 842 842 841 841 840 840 839 838 837 837 836 835 834 833 832 831 830 829 828 827 827 826 825 824 823 822 821 820 819 818 817 816 815 814 813 812 812 811 810 809 808 807 806 805 805 804 803 802 802 800
844 845 845 845 845 845 845 845 845 844 844 844 844 843 843 843 842 842 842 841 841 841 840 839 839 838 837 837 836 835 834 833 832 831 830 829 828 827 826 825 824 823 822 821 820 820 818 817 816 815 814 814 813 812 811 810 809 808 807 806 805 804 803 803 802 802 800 799 798
844 844 844 844 844 844 844 844 844 844 843 843 843 843 842 842 842 842 841 841 840 840 839 838 838 837 836 835 834 833 832 832 830 829 828 827 826 825 824 823 822 821 820 819 819 818 817 816 815 813 813 812 811 810 809 808 807 806 805 804 803 802 801 800 800 799 798 797 796
843 843 843 843 843 843 843 843 843 843 843 842 842 842 842 842 841 841 840 840 839 838 838 837 837 836 835 834 833 832 831 830 829 828 827 826 825 824 823 822 821 820 819 818 817 816 815 814 813 812 811 810 809 808 807 806 805 804 803 802 802 801 799 798 798 797 796 795 794
843 843 843 843 843 843 842 842 842 842 842 842 842 841 841 841 840 840 839 838 838 837 837 836 835 834 833 832 831 830 829 828 827 826 825 824 823 822 821 820 819 818 817 816 816 815 814 812 812 810 809 808 807 807 806 805 804 802 801 800 799 798 797 796 796 795 794 793 792
842 842 842 842 842 842 842 842 842 842 841 841 841 840 840 840 839 839 838 837 837 836 835 834 834 833 832 831 830 829 828 827 826 824 823 822 821 820 819 818 817 817 816 815 814 813 812 811 810 809 807 806 805 805 804 803 802 801 800 799 797 796 795 794 793 792 792 791 790
842 842 842 842 841 841 841 841 841 841 840 840 840 839 839 838 838 837 837 836 835 834 834 833 832 831 830 829 828 827 826 825 824 823 822 821 820 819 818 817 816 815 814 813 812 811 810 809 808 807 806 805 804 802 802 801 800 799 798 797 796 794 793 792 791 790 790 789 787
841 841 841 841 841 840 840 840 840 840 839 839 839 838 838 837 837 836 835 834 834 833 832 831 830 829 829 828 827 826 825 823 822 821 820 819 818 817 816 815 814 813 812 811 810 809 808 808 807 806 804 803 802 801 800 799 798 797 796 795 794 792 791 790 789 788 787 787 786
840 840 840 840 840 840 839 839 839 838 838 838 837 837 837 836 835 835 834 833 832 831 831 830 829 828 827 826 825 824 823 822 821 820 819 817 817 815 814 813 812 812 811 809 808 807 807 806 805 804 803 802 800 799 798 797 796 795 794 793 792 790 789 788 787 787 786 785 784
839 839 839 839 839 838 838 838 838 837 837 837 836 836 835 834 834 833 832 832 831 830 829 828 827 827 825 824 823 822 822 820 819 818 817 816 815 814 813 812 811 810 809 808 807 806 805 804 803 802 801 800 799 797 796 795 794 793 792 791 789 788 787 786 785 785 784 782 782
838 838 838 838 838 837 837 837 837 836 836 835 835 834 834 833 832 832 831 830 829 828 827 826 826 825 824 823 822 821 820 819 817 817 815 814 813 812 811 810 809 808 807 806 805 804 803 802 801 800 799 798 797 796 794 793 792 791 790 788 787 786 785 784 783 782 782 780 779
838 837 837 837 837 837 836 836 835 835 834 834 833 833 832 832 831 830 829 828 828 827 826 825 824 823 822 821 820 819 818 817 816 815 814 813 812 811 810 809 807 807 806 805 804 802 802 800 799 798 797 796 795 793 792 791 790 788 787 786 785 784 782 782 781 780 779 778 777
837 837 836 836 836 835 835 835 834 834 833 832 832 831 831 830 829 829 828 827 826 826 825 823 822 822 820 819 818 817 816 816 814 813 812 811 810 809 808 807 806 805 804 803 802 801 800 798 797 796 795 794 792 791 790 789 787 786 785 784 782 781 780 779 778 777 777 776 775
836 836 835 835 835 834 834 833 833 832 832 831 831 830 829 828 828 827 827 826 825 824 823 822 821 820 819 818 817 816 814 813 813 812 811 810 808 807 807 806 804 803 802 801 800 799 798 797 795 794 793 792 790 789 788 787 785 784 782 781 780 779 778 777 776 775 774 774 773
835 835 834 834 833 833 832 832 832 831 830 830 829 828 828 827 826 826 825 824 823 822 821 820 819 818 817 816 815 814 812 812 811 810 809 808 807 806 805 804 803 802 800 799 798 797 796 794 793 792 791 790 788 787 786 785 783 782 780 779 778 777 776 775 774 773 772 772 771
834 833 833 833 832 832 831 831 830 829 829 828 828 827 826 826 825 824 823 822 822 821 820 819 818 817 816 815 813 812 811 810 809 807 807 806 805 804 803 802 801 800 799 797 797 796 795 793 792 791 789 788 787 785 784 783 782 780 779 777 776 775 774 773 772 772 771 770 769
833 832 832 831 831 830 830 829 829 828 827 827 826 825 825 824 823 822 821 821 820 819 818 817 816 815 814 813 812 811 810 808 807 806 805 804 803 802 801 800 799 798 797 796 795 794 793 792 791 790 788 787 785 784 782 781 780 779 777 776 775 773 772 771 770 770 769 768 767
832 831 831 830 829 829 828 828 827 827 826 825 825 824 823 822 822 821 820 819 818 817 816 815 814 813 812 811 810 809 808 807 806 805 803 802 801 800 799 798 797 796 795 794 793 792 792 791 790 788 787 785 783 782 780 779 778 777 776 774 773 772 770 769 768 767 767 766 765
830 830 829 829 828 827 827 826 826 825 824 824 823 822 821 821 820 819 818 817 816 815 814 813 812 812 811 809 808 807 806 805 804 803 802 801 800 798 797 796 795 794 793 792 792 791 790 789 788 787 785 784 782 780 779 777 776 775 773 772 771 770 769 767 766 765 764 764 763
829 828 827 827 827 826 825 825 824 823 823 822 821 821 820 819 818 817 816 816 815 814 813 812 811 810 809 808 807 806 805 804 802 802 800 799 798 797 796 795 793 792 792 791 790 789 788 787 786 784 783 782 780 779 777 775 774 772 771 770 769 768 767 766 765 764 762 762 761
827 827 826 826 825 824 824 823 823 822 821 821 820 819 818 817 817 816 815 814 813 812 811 810 809 808 807 806 805 804 803 802 801 800 799 797 796 795 794 793 792 791 790 789 788 787 786 785 784 782 781 780 779 777 775 774 772 771 769 768 767 766 765 764 763 762 761 760 759
826 825 825 824 823 823 822 822 821 820 820 819 818 817 817 816 815 814 813 812 811 810 810 809 807 807 806 805 804 802 802 800 799 798 797 796 795 793 792 791 790 789 788 787 786 785 784 783 782 780 779 778 777 775 773 772 770 769 767 766 765 764 763 762 761 760 759 758 757
824 824 823 823 822 822 821 820 820 819 818 817 817 816 815 814 813 812 812 811 810 809 808 807 806 805 804 803 802 801 800 798 797 797 796 794 793 792 790 789 788 787 786 785 785 783 782 781 780 778 777 776 775 773 772 770 768 767 766 764 763 762 761 760 759 758 757 757 755
823 822 822 821 821 820 819 819 818 817 817 816 815 814 813 813 812 811 810 809 808 807 806 805 804 803 802 801 800 799 798 797 796 795 794 793 792 790 788 787 786 785 784 784 783 782 780 779 778 777 775 774 772 771 769 768 767 765 764 762 761 761 760 759 758 757 756 755 754
822 821 820 820 819 818 818 817 817 816 815 814 813 813 812 811 810 809 809 808 807 806 805 804 803 802 801 800 798 797 796 795 794 793 792 791 790 788 787 786 784 783 783 782 781 780 778 777 776 774 773 772 770 769 767 766 764 763 762 760 760 759 758 757 756 755 754 753 752
820 820 819 818 817 817 816 816 815 814 813 812 812 811 810 809 808 808 807 806 805 804 803 802 802 800 799 798 797 796 795 793 792 791 790 789 788 787 785 784 782 782 781 780 779 778 777 775 774 772 771 770 768 767 765 763 762 761 760 758 757 757 756 756 755 754 752 751 750
819 818 817 817 816 815 815 814 813 812 812 811 810 809 809 808 807 806 805 805 804 803 802 801 800 799 798 797 796 795 793 792 790 789 788 787 786 785 783 782 781 780 779 778 777 776 775 773 772 771 769 768 766 764 763 762 760 759 758 757 756 755 754 753 752 752 751 749 747
817 817 816 815 814 814 813 812 812 811 810 809 809 808 807 806 806 805 804 803 802 801 800 799 798 797 796 795 794 793 792 790 789 787 787 786 784 783 781 780 778 777 777 777 776 774 773 772 770 769 767 766 764 762 761 760 758 757 756 755 754 753 752 752 751 749 748 747 745
816 815 814 813 813 812 812 811 810 809 808 808 807 806 806 805 804 803 802 802 800 799 798 797 796 795 794 793 792 791 790 789 787 786 785 784 783 781 780 778 777 776 775 774 773 772 771 770 768 767 766 764 762 761 759 758 757 755 754 753 752 751 751 750 748 747 746 744 743
814 813 813 812 811 811 810 809 808 808 807 806 806 805 804 803 802 801 801 800 799 797 797 795 794 793 792 792 790 789 788 787 786 785 783 782 781 780 778 776 775 774 773 772 772 771 769 768 767 766 764 763 761 759 758 756 755 754 752 751 750 749 748 747 746 745 743 742 740
812 812 811 810 810 809 808 808 807 806 806 805 804 803 802 802 801 800 799 798 797 796 795 794 793 792 791 790 788 787 786 785 784 783 782 780 779 778 777 775 773 772 771 771 770 769 767 766 765 764 763 762 760 758 757 755 753 752 751 750 748 747 746 745 744 743 741 739 738
811 810 810 809 808 807 807 806 806 805 804 803 802 802 801 800 799 798 797 797 796 795 794 792 791 790 789 788 787 785 784 782 782 781 780 779 777 777 776 774 772 771 769 769 768 767 766 765 764 762 761 760 759 757 756 754 752 750 749 748 747 745 744 742 742 741 739 737 736
809 809 808 807 807 806 805 805 804 803 803 802 801 800 799 798 797 797 796 795 794 793 792 791 789 788 787 786 785 783 782 780 779 778 777 777 776 775 774 772 771 769 768 767 766 765 764 763 762 761 760 759 757 756 754 753 751 749 747 746 745 744 742 740 739 738 737 735 733